Вернуться в каталог

COSMOS 2499 DEB

АктивенPO
NORAD 60609·DEBRIS·🇷🇺 Russia

Запущен May 23, 2014 с Plesetsk Cosmodrome

Loading…

Ближайшие Пролёты (ближайшие 24 часа)

TLE

СвежийSource: Space-Track

Эпоха: Sep 12, 2026, 06:44 UTC

1 60609U 14028BV  26255.28069366  .00006307  00000-0  80208-2 0  9992
2 60609  82.2554  99.6072 0345950 269.2072  86.9419 13.40975951162107

Отслеживайте COSMOS 2499 DEB в реальном времени с AllMySat

Download on the App Store